Year,Month,Day,Hour,Minute,Value (Times are PST for insolation in W/m^2)
2009,05,19,00,00,0.00
2009,05,19,00,01,0.00
2009,05,19,00,02,0.00
2009,05,19,00,03,0.00
2009,05,19,00,04,0.00
2009,05,19,00,05,0.00
2009,05,19,00,06,0.00
2009,05,19,00,07,0.00
2009,05,19,00,08,0.00
2009,05,19,00,09,0.00
2009,05,19,00,10,0.00
2009,05,19,00,11,0.00
2009,05,19,00,12,0.00
2009,05,19,00,13,0.00
2009,05,19,00,14,0.00
2009,05,19,00,15,0.00
2009,05,19,00,16,0.00
2009,05,19,00,17,0.00
2009,05,19,00,18,0.00
2009,05,19,00,19,0.00
2009,05,19,00,20,0.00
2009,05,19,00,21,0.00
2009,05,19,00,22,0.00
2009,05,19,00,23,0.00
2009,05,19,00,24,0.00
2009,05,19,00,25,0.00
2009,05,19,00,26,0.00
2009,05,19,00,27,0.00
2009,05,19,00,28,0.00
2009,05,19,00,29,0.00
2009,05,19,00,30,0.00
2009,05,19,00,31,0.00
2009,05,19,00,32,0.00
2009,05,19,00,33,0.00
2009,05,19,00,34,0.00
2009,05,19,00,35,0.00
2009,05,19,00,36,0.00
2009,05,19,00,37,0.00
2009,05,19,00,38,0.00
2009,05,19,00,39,0.00
2009,05,19,00,40,0.00
2009,05,19,00,41,0.00
2009,05,19,00,42,0.00
2009,05,19,00,43,0.00
2009,05,19,00,44,0.00
2009,05,19,00,45,0.00
2009,05,19,00,46,0.00
2009,05,19,00,47,0.00
2009,05,19,00,48,0.00
2009,05,19,00,49,0.00
2009,05,19,00,50,0.00
2009,05,19,00,51,0.00
2009,05,19,00,52,0.00
2009,05,19,00,53,0.00
2009,05,19,00,54,0.00
2009,05,19,00,55,0.00
2009,05,19,00,56,0.00
2009,05,19,00,57,0.00
2009,05,19,00,58,0.00
2009,05,19,00,59,0.00
2009,05,19,01,00,0.00
2009,05,19,01,01,0.00
2009,05,19,01,02,0.00
2009,05,19,01,03,0.00
2009,05,19,01,04,0.00
2009,05,19,01,05,0.00
2009,05,19,01,06,0.00
2009,05,19,01,07,0.00
2009,05,19,01,08,0.00
2009,05,19,01,09,0.00
2009,05,19,01,10,0.00
2009,05,19,01,11,0.00
2009,05,19,01,12,0.00
2009,05,19,01,13,0.00
2009,05,19,01,14,0.00
2009,05,19,01,15,0.00
2009,05,19,01,16,0.00
2009,05,19,01,17,0.00
2009,05,19,01,18,0.00
2009,05,19,01,19,0.00
2009,05,19,01,20,0.00
2009,05,19,01,21,0.00
2009,05,19,01,22,0.00
2009,05,19,01,23,0.00
2009,05,19,01,24,0.00
2009,05,19,01,25,0.00
2009,05,19,01,26,0.00
2009,05,19,01,27,0.00
2009,05,19,01,28,0.00
2009,05,19,01,29,0.00
2009,05,19,01,30,0.00
2009,05,19,01,31,0.00
2009,05,19,01,32,0.00
2009,05,19,01,33,0.00
2009,05,19,01,34,0.00
2009,05,19,01,35,0.00
2009,05,19,01,36,0.00
2009,05,19,01,37,0.00
2009,05,19,01,38,0.00
2009,05,19,01,39,0.00
2009,05,19,01,40,0.00
2009,05,19,01,41,0.00
2009,05,19,01,42,0.00
2009,05,19,01,43,0.00
2009,05,19,01,44,0.00
2009,05,19,01,45,0.00
2009,05,19,01,46,0.00
2009,05,19,01,47,0.00
2009,05,19,01,48,0.00
2009,05,19,01,49,0.00
2009,05,19,01,50,0.00
2009,05,19,01,51,0.00
2009,05,19,01,52,0.00
2009,05,19,01,53,0.00
2009,05,19,01,54,0.00
2009,05,19,01,55,0.00
2009,05,19,01,56,0.00
2009,05,19,01,57,0.00
2009,05,19,01,58,0.00
2009,05,19,01,59,0.00
2009,05,19,02,00,0.00
2009,05,19,02,01,0.00
2009,05,19,02,02,0.00
2009,05,19,02,03,0.00
2009,05,19,02,04,0.00
2009,05,19,02,05,0.00
2009,05,19,02,06,0.00
2009,05,19,02,07,0.00
2009,05,19,02,08,0.00
2009,05,19,02,09,0.00
2009,05,19,02,10,0.00
2009,05,19,02,11,0.00
2009,05,19,02,12,0.00
2009,05,19,02,13,0.00
2009,05,19,02,14,0.00
2009,05,19,02,15,0.00
2009,05,19,02,16,0.00
2009,05,19,02,17,0.00
2009,05,19,02,18,0.00
2009,05,19,02,19,0.00
2009,05,19,02,20,0.00
2009,05,19,02,21,0.00
2009,05,19,02,22,0.00
2009,05,19,02,23,0.00
2009,05,19,02,24,0.00
2009,05,19,02,25,0.00
2009,05,19,02,26,0.00
2009,05,19,02,27,0.00
2009,05,19,02,28,0.00
2009,05,19,02,29,0.00
2009,05,19,02,30,0.00
2009,05,19,02,31,0.00
2009,05,19,02,32,0.00
2009,05,19,02,33,0.00
2009,05,19,02,34,0.00
2009,05,19,02,35,0.00
2009,05,19,02,36,0.00
2009,05,19,02,37,0.00
2009,05,19,02,38,0.00
2009,05,19,02,39,0.00
2009,05,19,02,40,0.00
2009,05,19,02,41,0.00
2009,05,19,02,42,0.00
2009,05,19,02,43,0.00
2009,05,19,02,44,0.00
2009,05,19,02,45,0.00
2009,05,19,02,46,0.00
2009,05,19,02,47,0.00
2009,05,19,02,48,0.00
2009,05,19,02,49,0.00
2009,05,19,02,50,0.00
2009,05,19,02,51,0.00
2009,05,19,02,52,0.00
2009,05,19,02,53,0.00
2009,05,19,02,54,0.00
2009,05,19,02,55,0.00
2009,05,19,02,56,0.00
2009,05,19,02,57,0.00
2009,05,19,02,58,0.00
2009,05,19,02,59,0.00
2009,05,19,03,00,0.00
2009,05,19,03,01,0.00
2009,05,19,03,02,0.00
2009,05,19,03,03,0.00
2009,05,19,03,04,0.00
2009,05,19,03,05,0.00
2009,05,19,03,06,0.00
2009,05,19,03,07,0.00
2009,05,19,03,08,0.00
2009,05,19,03,09,0.00
2009,05,19,03,10,0.00
2009,05,19,03,11,0.00
2009,05,19,03,12,0.00
2009,05,19,03,13,0.00
2009,05,19,03,14,0.00
2009,05,19,03,15,0.00
2009,05,19,03,16,0.00
2009,05,19,03,17,0.00
2009,05,19,03,18,0.00
2009,05,19,03,19,0.00
2009,05,19,03,20,0.00
2009,05,19,03,21,0.00
2009,05,19,03,22,0.00
2009,05,19,03,23,0.00
2009,05,19,03,24,0.00
2009,05,19,03,25,0.00
2009,05,19,03,26,0.00
2009,05,19,03,27,0.00
2009,05,19,03,28,0.00
2009,05,19,03,29,0.00
2009,05,19,03,30,0.00
2009,05,19,03,31,0.00
2009,05,19,03,32,0.00
2009,05,19,03,33,0.00
2009,05,19,03,34,0.00
2009,05,19,03,35,0.00
2009,05,19,03,36,0.00
2009,05,19,03,37,0.00
2009,05,19,03,38,0.00
2009,05,19,03,39,0.00
2009,05,19,03,40,0.00
2009,05,19,03,41,0.00
2009,05,19,03,42,0.00
2009,05,19,03,43,0.00
2009,05,19,03,44,0.00
2009,05,19,03,45,0.00
2009,05,19,03,46,0.00
2009,05,19,03,47,0.00
2009,05,19,03,48,0.00
2009,05,19,03,49,0.00
2009,05,19,03,50,0.00
2009,05,19,03,51,0.00
2009,05,19,03,52,0.00
2009,05,19,03,53,0.00
2009,05,19,03,54,0.00
2009,05,19,03,55,0.00
2009,05,19,03,56,0.00
2009,05,19,03,57,0.00
2009,05,19,03,58,0.00
2009,05,19,03,59,0.00
2009,05,19,04,00,0.00
2009,05,19,04,01,0.00
2009,05,19,04,02,0.00
2009,05,19,04,03,0.00
2009,05,19,04,04,0.00
2009,05,19,04,05,0.00
2009,05,19,04,06,0.00
2009,05,19,04,07,0.00
2009,05,19,04,08,0.00
2009,05,19,04,09,0.00
2009,05,19,04,10,0.00
2009,05,19,04,11,0.00
2009,05,19,04,12,0.00
2009,05,19,04,13,0.00
2009,05,19,04,14,0.00
2009,05,19,04,15,0.00
2009,05,19,04,16,0.00
2009,05,19,04,17,0.00
2009,05,19,04,18,0.00
2009,05,19,04,19,0.00
2009,05,19,04,20,0.00
2009,05,19,04,21,0.00
2009,05,19,04,22,0.00
2009,05,19,04,23,0.00
2009,05,19,04,24,0.00
2009,05,19,04,25,0.00
2009,05,19,04,26,0.00
2009,05,19,04,27,0.00
2009,05,19,04,28,0.00
2009,05,19,04,29,0.00
2009,05,19,04,30,0.00
2009,05,19,04,31,0.00
2009,05,19,04,32,0.00
2009,05,19,04,33,0.00
2009,05,19,04,34,0.00
2009,05,19,04,35,0.00
2009,05,19,04,36,0.00
2009,05,19,04,37,0.00
2009,05,19,04,38,0.00
2009,05,19,04,39,0.00
2009,05,19,04,40,0.00
2009,05,19,04,41,0.00
2009,05,19,04,42,0.00
2009,05,19,04,43,0.00
2009,05,19,04,44,0.00
2009,05,19,04,45,0.00
2009,05,19,04,46,0.00
2009,05,19,04,47,0.00
2009,05,19,04,48,0.00
2009,05,19,04,49,0.00
2009,05,19,04,50,0.00
2009,05,19,04,51,0.00
2009,05,19,04,52,0.00
2009,05,19,04,53,0.00
2009,05,19,04,54,0.00
2009,05,19,04,55,0.00
2009,05,19,04,56,0.00
2009,05,19,04,57,0.00
2009,05,19,04,58,0.00
2009,05,19,04,59,0.00
2009,05,19,05,00,0.00
2009,05,19,05,01,0.00
2009,05,19,05,02,0.00
2009,05,19,05,03,0.00
2009,05,19,05,04,0.00
2009,05,19,05,05,0.00
2009,05,19,05,06,0.00
2009,05,19,05,07,0.00
2009,05,19,05,08,0.00
2009,05,19,05,09,0.00
2009,05,19,05,10,0.00
2009,05,19,05,11,0.00
2009,05,19,05,12,0.00
2009,05,19,05,13,0.00
2009,05,19,05,14,0.00
2009,05,19,05,15,0.00
2009,05,19,05,16,0.00
2009,05,19,05,17,0.00
2009,05,19,05,18,0.00
2009,05,19,05,19,0.00
2009,05,19,05,20,0.00
2009,05,19,05,21,0.00
2009,05,19,05,22,0.00
2009,05,19,05,23,0.00
2009,05,19,05,24,0.00
2009,05,19,05,25,0.00
2009,05,19,05,26,0.00
2009,05,19,05,27,0.00
2009,05,19,05,28,0.00
2009,05,19,05,29,2.00
2009,05,19,05,30,5.00
2009,05,19,05,31,5.00
2009,05,19,05,32,5.00
2009,05,19,05,33,5.00
2009,05,19,05,34,5.00
2009,05,19,05,35,5.00
2009,05,19,05,36,5.00
2009,05,19,05,37,6.80
2009,05,19,05,38,7.00
2009,05,19,05,39,7.00
2009,05,19,05,40,7.20
2009,05,19,05,41,9.00
2009,05,19,05,42,9.00
2009,05,19,05,43,9.60
2009,05,19,05,44,11.00
2009,05,19,05,45,11.00
2009,05,19,05,46,11.00
2009,05,19,05,47,11.60
2009,05,19,05,48,12.00
2009,05,19,05,49,12.00
2009,05,19,05,50,12.00
2009,05,19,05,51,12.00
2009,05,19,05,52,13.70
2009,05,19,05,53,15.90
2009,05,19,05,54,16.20
2009,05,19,05,55,18.00
2009,05,19,05,56,18.00
2009,05,19,05,57,18.30
2009,05,19,05,58,19.00
2009,05,19,05,59,19.00
2009,05,19,06,00,19.80
2009,05,19,06,01,21.00
2009,05,19,06,02,21.00
2009,05,19,06,03,21.00
2009,05,19,06,04,22.30
2009,05,19,06,05,23.00
2009,05,19,06,06,23.00
2009,05,19,06,07,24.70
2009,05,19,06,08,25.00
2009,05,19,06,09,26.00
2009,05,19,06,10,26.20
2009,05,19,06,11,28.00
2009,05,19,06,12,28.50
2009,05,19,06,13,30.00
2009,05,19,06,14,30.80
2009,05,19,06,15,32.50
2009,05,19,06,16,33.00
2009,05,19,06,17,33.00
2009,05,19,06,18,34.20
2009,05,19,06,19,35.00
2009,05,19,06,20,36.60
2009,05,19,06,21,37.00
2009,05,19,06,22,38.70
2009,05,19,06,23,39.00
2009,05,19,06,24,40.20
2009,05,19,06,25,42.00
2009,05,19,06,26,42.40
2009,05,19,06,27,44.50
2009,05,19,06,28,46.30
2009,05,19,06,29,47.00
2009,05,19,06,30,47.90
2009,05,19,06,31,50.10
2009,05,19,06,32,51.00
2009,05,19,06,33,52.20
2009,05,19,06,34,53.00
2009,05,19,06,35,53.80
2009,05,19,06,36,54.00
2009,05,19,06,37,54.00
2009,05,19,06,38,55.90
2009,05,19,06,39,56.10
2009,05,19,06,40,58.60
2009,05,19,06,41,62.00
2009,05,19,06,42,62.00
2009,05,19,06,43,62.30
2009,05,19,06,44,63.80
2009,05,19,06,45,65.80
2009,05,19,06,46,68.00
2009,05,19,06,47,69.60
2009,05,19,06,48,72.60
2009,05,19,06,49,75.40
2009,05,19,06,50,76.80
2009,05,19,06,51,80.20
2009,05,19,06,52,82.80
2009,05,19,06,53,83.90
2009,05,19,06,54,86.20
2009,05,19,06,55,90.20
2009,05,19,06,56,91.40
2009,05,19,06,57,93.50
2009,05,19,06,58,96.00
2009,05,19,06,59,99.60
2009,05,19,07,00,103.30
2009,05,19,07,01,106.10
2009,05,19,07,02,108.10
2009,05,19,07,03,110.30
2009,05,19,07,04,117.30
2009,05,19,07,05,143.20
2009,05,19,07,06,158.60
2009,05,19,07,07,161.80
2009,05,19,07,08,160.10
2009,05,19,07,09,158.00
2009,05,19,07,10,158.00
2009,05,19,07,11,164.00
2009,05,19,07,12,189.20
2009,05,19,07,13,195.10
2009,05,19,07,14,202.20
2009,05,19,07,15,211.10
2009,05,19,07,16,222.10
2009,05,19,07,17,235.10
2009,05,19,07,18,248.20
2009,05,19,07,19,258.00
2009,05,19,07,20,263.00
2009,05,19,07,21,266.50
2009,05,19,07,22,268.80
2009,05,19,07,23,262.40
2009,05,19,07,24,229.00
2009,05,19,07,25,217.10
2009,05,19,07,26,186.60
2009,05,19,07,27,150.30
2009,05,19,07,28,114.20
2009,05,19,07,29,111.80
2009,05,19,07,30,155.10
2009,05,19,07,31,183.00
2009,05,19,07,32,178.30
2009,05,19,07,33,143.80
2009,05,19,07,34,118.20
2009,05,19,07,35,120.00
2009,05,19,07,36,251.40
2009,05,19,07,37,276.00
2009,05,19,07,38,284.50
2009,05,19,07,39,288.70
2009,05,19,07,40,305.80
2009,05,19,07,41,316.40
2009,05,19,07,42,299.70
2009,05,19,07,43,257.00
2009,05,19,07,44,196.20
2009,05,19,07,45,103.70
2009,05,19,07,46,99.90
2009,05,19,07,47,96.20
2009,05,19,07,48,92.40
2009,05,19,07,49,88.90
2009,05,19,07,50,86.50
2009,05,19,07,51,84.40
2009,05,19,07,52,83.10
2009,05,19,07,53,81.10
2009,05,19,07,54,83.90
2009,05,19,07,55,137.00
2009,05,19,07,56,178.20
2009,05,19,07,57,343.90
2009,05,19,07,58,348.50
2009,05,19,07,59,355.40
2009,05,19,08,00,362.30
2009,05,19,08,01,369.50
2009,05,19,08,02,374.80
2009,05,19,08,03,378.50
2009,05,19,08,04,382.10
2009,05,19,08,05,386.00
2009,05,19,08,06,389.50
2009,05,19,08,07,395.10
2009,05,19,08,08,403.60
2009,05,19,08,09,411.60
2009,05,19,08,10,417.80
2009,05,19,08,11,422.40
2009,05,19,08,12,426.40
2009,05,19,08,13,434.20
2009,05,19,08,14,442.60
2009,05,19,08,15,452.60
2009,05,19,08,16,465.30
2009,05,19,08,17,480.30
2009,05,19,08,18,492.90
2009,05,19,08,19,503.00
2009,05,19,08,20,509.00
2009,05,19,08,21,498.00
2009,05,19,08,22,481.60
2009,05,19,08,23,513.20
2009,05,19,08,24,519.40
2009,05,19,08,25,528.50
2009,05,19,08,26,543.80
2009,05,19,08,27,554.80
2009,05,19,08,28,555.80
2009,05,19,08,29,486.00
2009,05,19,08,30,459.10
2009,05,19,08,31,475.60
2009,05,19,08,32,459.00
2009,05,19,08,33,347.20
2009,05,19,08,34,275.80
2009,05,19,08,35,258.40
2009,05,19,08,36,240.40
2009,05,19,08,37,237.00
2009,05,19,08,38,220.90
2009,05,19,08,39,226.30
2009,05,19,08,40,249.50
2009,05,19,08,41,240.20
2009,05,19,08,42,230.10
2009,05,19,08,43,212.20
2009,05,19,08,44,210.60
2009,05,19,08,45,216.50
2009,05,19,08,46,228.40
2009,05,19,08,47,238.80
2009,05,19,08,48,238.40
2009,05,19,08,49,237.00
2009,05,19,08,50,393.00
2009,05,19,08,51,445.00
2009,05,19,08,52,616.90
2009,05,19,08,53,635.10
2009,05,19,08,54,652.00
2009,05,19,08,55,590.70
2009,05,19,08,56,247.40
2009,05,19,08,57,259.50
2009,05,19,08,58,244.00
2009,05,19,08,59,244.00
2009,05,19,09,00,410.00
2009,05,19,09,01,653.20
2009,05,19,09,02,662.60
2009,05,19,09,03,633.30
2009,05,19,09,04,626.00
2009,05,19,09,05,355.20
2009,05,19,09,06,256.50
2009,05,19,09,07,294.60
2009,05,19,09,08,285.70
2009,05,19,09,09,236.40
2009,05,19,09,10,225.30
2009,05,19,09,11,228.40
2009,05,19,09,12,238.80
2009,05,19,09,13,267.10
2009,05,19,09,14,310.40
2009,05,19,09,15,330.40
2009,05,19,09,16,352.50
2009,05,19,09,17,362.00
2009,05,19,09,18,362.00
2009,05,19,09,19,444.60
2009,05,19,09,20,480.00
2009,05,19,09,21,671.20
2009,05,19,09,22,727.10
2009,05,19,09,23,734.60
2009,05,19,09,24,760.00
2009,05,19,09,25,782.70
2009,05,19,09,26,807.30
2009,05,19,09,27,822.00
2009,05,19,09,28,812.20
2009,05,19,09,29,766.00
2009,05,19,09,30,766.00
2009,05,19,09,31,821.50
2009,05,19,09,32,891.80
2009,05,19,09,33,917.00
2009,05,19,09,34,903.10
2009,05,19,09,35,858.50
2009,05,19,09,36,847.00
2009,05,19,09,37,408.70
2009,05,19,09,38,360.00
2009,05,19,09,39,329.00
2009,05,19,09,40,329.00
2009,05,19,09,41,309.00
2009,05,19,09,42,211.60
2009,05,19,09,43,157.40
2009,05,19,09,44,117.60
2009,05,19,09,45,97.10
2009,05,19,09,46,88.20
2009,05,19,09,47,84.80
2009,05,19,09,48,83.30
2009,05,19,09,49,83.00
2009,05,19,09,50,83.00
2009,05,19,09,51,83.80
2009,05,19,09,52,87.60
2009,05,19,09,53,89.90
2009,05,19,09,54,95.20
2009,05,19,09,55,100.80
2009,05,19,09,56,106.30
2009,05,19,09,57,112.80
2009,05,19,09,58,120.20
2009,05,19,09,59,127.80
2009,05,19,10,00,133.40
2009,05,19,10,01,135.00
2009,05,19,10,02,137.20
2009,05,19,10,03,140.30
2009,05,19,10,04,144.40
2009,05,19,10,05,147.50
2009,05,19,10,06,150.60
2009,05,19,10,07,149.20
2009,05,19,10,08,146.20
2009,05,19,10,09,141.70
2009,05,19,10,10,138.50
2009,05,19,10,11,133.60
2009,05,19,10,12,132.00
2009,05,19,10,13,132.70
2009,05,19,10,14,135.20
2009,05,19,10,15,139.20
2009,05,19,10,16,145.30
2009,05,19,10,17,148.00
2009,05,19,10,18,164.90
2009,05,19,10,19,192.20
2009,05,19,10,20,204.80
2009,05,19,10,21,217.90
2009,05,19,10,22,228.10
2009,05,19,10,23,259.50
2009,05,19,10,24,280.10
2009,05,19,10,25,266.60
2009,05,19,10,26,236.00
2009,05,19,10,27,248.00
2009,05,19,10,28,300.90
2009,05,19,10,29,329.00
2009,05,19,10,30,290.00
2009,05,19,10,31,374.50
2009,05,19,10,32,459.00
2009,05,19,10,33,394.60
2009,05,19,10,34,383.30
2009,05,19,10,35,394.00
2009,05,19,10,36,394.00
2009,05,19,10,37,394.00
2009,05,19,10,38,390.20
2009,05,19,10,39,390.00
2009,05,19,10,40,414.30
2009,05,19,10,41,552.00
2009,05,19,10,42,472.50
2009,05,19,10,43,287.00
2009,05,19,10,44,287.00
2009,05,19,10,45,287.00
2009,05,19,10,46,475.50
2009,05,19,10,47,703.00
2009,05,19,10,48,787.10
2009,05,19,10,49,821.00
2009,05,19,10,50,659.40
2009,05,19,10,51,556.10
2009,05,19,10,52,456.40
2009,05,19,10,53,390.90
2009,05,19,10,54,308.00
2009,05,19,10,55,276.60
2009,05,19,10,56,250.20
2009,05,19,10,57,235.40
2009,05,19,10,58,222.10
2009,05,19,10,59,208.40
2009,05,19,11,00,196.40
2009,05,19,11,01,190.00
2009,05,19,11,02,188.00
2009,05,19,11,03,186.70
2009,05,19,11,04,184.00
2009,05,19,11,05,181.40
2009,05,19,11,06,184.40
2009,05,19,11,07,187.70
2009,05,19,11,08,189.90
2009,05,19,11,09,190.80
2009,05,19,11,10,201.00
2009,05,19,11,11,163.80
2009,05,19,11,12,131.30
2009,05,19,11,13,113.40
2009,05,19,11,14,105.00
2009,05,19,11,15,97.30
2009,05,19,11,16,84.20
2009,05,19,11,17,78.70
2009,05,19,11,18,77.00
2009,05,19,11,19,77.00
2009,05,19,11,20,78.60
2009,05,19,11,21,82.20
2009,05,19,11,22,87.50
2009,05,19,11,23,92.80
2009,05,19,11,24,100.50
2009,05,19,11,25,105.90
2009,05,19,11,26,112.10
2009,05,19,11,27,117.80
2009,05,19,11,28,126.80
2009,05,19,11,29,139.60
2009,05,19,11,30,156.10
2009,05,19,11,31,175.00
2009,05,19,11,32,196.40
2009,05,19,11,33,214.40
2009,05,19,11,34,231.90
2009,05,19,11,35,250.50
2009,05,19,11,36,284.50
2009,05,19,11,37,290.00
2009,05,19,11,38,645.30
2009,05,19,11,39,688.80
2009,05,19,11,40,909.50
2009,05,19,11,41,896.40
2009,05,19,11,42,889.10
2009,05,19,11,43,868.80
2009,05,19,11,44,862.80
2009,05,19,11,45,848.10
2009,05,19,11,46,850.70
2009,05,19,11,47,861.50
2009,05,19,11,48,881.30
2009,05,19,11,49,873.60
2009,05,19,11,50,893.20
2009,05,19,11,51,943.60
2009,05,19,11,52,954.00
2009,05,19,11,53,828.00
2009,05,19,11,54,838.00
2009,05,19,11,55,838.00
2009,05,19,11,56,838.00
2009,05,19,11,57,694.00
2009,05,19,11,58,317.90
2009,05,19,11,59,275.60
2009,05,19,12,00,243.70
2009,05,19,12,01,215.50
2009,05,19,12,02,192.20
2009,05,19,12,03,177.90
2009,05,19,12,04,174.00
2009,05,19,12,05,178.00
2009,05,19,12,06,184.10
2009,05,19,12,07,191.30
2009,05,19,12,08,199.10
2009,05,19,12,09,209.50
2009,05,19,12,10,219.60
2009,05,19,12,11,231.70
2009,05,19,12,12,249.30
2009,05,19,12,13,271.30
2009,05,19,12,14,298.60
2009,05,19,12,15,334.50
2009,05,19,12,16,357.00
2009,05,19,12,17,393.00
2009,05,19,12,18,428.00
2009,05,19,12,19,434.00
2009,05,19,12,20,314.80
2009,05,19,12,21,262.00
2009,05,19,12,22,242.70
2009,05,19,12,23,230.60
2009,05,19,12,24,229.50
2009,05,19,12,25,235.80
2009,05,19,12,26,247.10
2009,05,19,12,27,250.20
2009,05,19,12,28,246.60
2009,05,19,12,29,236.80
2009,05,19,12,30,223.90
2009,05,19,12,31,220.00
2009,05,19,12,32,220.00
2009,05,19,12,33,223.30
2009,05,19,12,34,232.70
2009,05,19,12,35,252.80
2009,05,19,12,36,286.80
2009,05,19,12,37,292.00
2009,05,19,12,38,292.00
2009,05,19,12,39,292.00
2009,05,19,12,40,300.70
2009,05,19,12,41,346.60
2009,05,19,12,42,323.50
2009,05,19,12,43,278.40
2009,05,19,12,44,241.90
2009,05,19,12,45,209.50
2009,05,19,12,46,180.00
2009,05,19,12,47,156.00
2009,05,19,12,48,139.60
2009,05,19,12,49,129.40
2009,05,19,12,50,127.00
2009,05,19,12,51,118.20
2009,05,19,12,52,114.20
2009,05,19,12,53,115.90
2009,05,19,12,54,118.20
2009,05,19,12,55,121.30
2009,05,19,12,56,124.20
2009,05,19,12,57,129.10
2009,05,19,12,58,133.00
2009,05,19,12,59,135.80
2009,05,19,13,00,137.90
2009,05,19,13,01,140.60
2009,05,19,13,02,145.50
2009,05,19,13,03,151.20
2009,05,19,13,04,156.50
2009,05,19,13,05,168.30
2009,05,19,13,06,184.80
2009,05,19,13,07,208.70
2009,05,19,13,08,251.00
2009,05,19,13,09,299.10
2009,05,19,13,10,343.60
2009,05,19,13,11,336.00
2009,05,19,13,12,336.00
2009,05,19,13,13,337.80
2009,05,19,13,14,329.80
2009,05,19,13,15,306.40
2009,05,19,13,16,287.50
2009,05,19,13,17,258.00
2009,05,19,13,18,229.10
2009,05,19,13,19,205.30
2009,05,19,13,20,188.70
2009,05,19,13,21,179.50
2009,05,19,13,22,172.60
2009,05,19,13,23,165.40
2009,05,19,13,24,162.00
2009,05,19,13,25,163.40
2009,05,19,13,26,175.80
2009,05,19,13,27,198.40
2009,05,19,13,28,232.00
2009,05,19,13,29,258.00
2009,05,19,13,30,258.00
2009,05,19,13,31,258.00
2009,05,19,13,32,670.80
2009,05,19,13,33,923.90
2009,05,19,13,34,917.20
2009,05,19,13,35,934.00
2009,05,19,13,36,955.20
2009,05,19,13,37,929.20
2009,05,19,13,38,974.00
2009,05,19,13,39,970.00
2009,05,19,13,40,970.00
2009,05,19,13,41,970.00
2009,05,19,13,42,971.80
2009,05,19,13,43,976.00
2009,05,19,13,44,976.00
2009,05,19,13,45,976.00
2009,05,19,13,46,1000.70
2009,05,19,13,47,977.40
2009,05,19,13,48,975.60
2009,05,19,13,49,1019.70
2009,05,19,13,50,1032.00
2009,05,19,13,51,1032.00
2009,05,19,13,52,1032.00
2009,05,19,13,53,318.60
2009,05,19,13,54,281.10
2009,05,19,13,55,321.70
2009,05,19,13,56,317.60
2009,05,19,13,57,308.00
2009,05,19,13,58,307.30
2009,05,19,13,59,308.80
2009,05,19,14,00,314.40
2009,05,19,14,01,307.10
2009,05,19,14,02,296.60
2009,05,19,14,03,291.60
2009,05,19,14,04,282.30
2009,05,19,14,05,276.60
2009,05,19,14,06,277.70
2009,05,19,14,07,284.30
2009,05,19,14,08,282.60
2009,05,19,14,09,270.80
2009,05,19,14,10,260.00
2009,05,19,14,11,253.80
2009,05,19,14,12,222.40
2009,05,19,14,13,200.40
2009,05,19,14,14,181.60
2009,05,19,14,15,165.40
2009,05,19,14,16,152.00
2009,05,19,14,17,141.80
2009,05,19,14,18,136.40
2009,05,19,14,19,135.00
2009,05,19,14,20,139.40
2009,05,19,14,21,150.70
2009,05,19,14,22,167.30
2009,05,19,14,23,188.00
2009,05,19,14,24,207.90
2009,05,19,14,25,227.10
2009,05,19,14,26,241.20
2009,05,19,14,27,248.90
2009,05,19,14,28,250.60
2009,05,19,14,29,247.20
2009,05,19,14,30,236.80
2009,05,19,14,31,223.40
2009,05,19,14,32,211.10
2009,05,19,14,33,200.10
2009,05,19,14,34,190.20
2009,05,19,14,35,185.60
2009,05,19,14,36,185.90
2009,05,19,14,37,189.60
2009,05,19,14,38,199.50
2009,05,19,14,39,209.70
2009,05,19,14,40,217.10
2009,05,19,14,41,224.40
2009,05,19,14,42,230.60
2009,05,19,14,43,230.90
2009,05,19,14,44,226.60
2009,05,19,14,45,220.60
2009,05,19,14,46,217.00
2009,05,19,14,47,217.20
2009,05,19,14,48,225.10
2009,05,19,14,49,240.90
2009,05,19,14,50,266.00
2009,05,19,14,51,302.50
2009,05,19,14,52,337.70
2009,05,19,14,53,378.00
2009,05,19,14,54,359.00
2009,05,19,14,55,359.00
2009,05,19,14,56,357.50
2009,05,19,14,57,349.30
2009,05,19,14,58,333.40
2009,05,19,14,59,317.00
2009,05,19,15,00,302.50
2009,05,19,15,01,292.00
2009,05,19,15,02,280.80
2009,05,19,15,03,265.60
2009,05,19,15,04,248.80
2009,05,19,15,05,234.40
2009,05,19,15,06,226.10
2009,05,19,15,07,221.40
2009,05,19,15,08,220.00
2009,05,19,15,09,219.90
2009,05,19,15,10,217.60
2009,05,19,15,11,215.20
2009,05,19,15,12,211.80
2009,05,19,15,13,208.10
2009,05,19,15,14,205.20
2009,05,19,15,15,203.00
2009,05,19,15,16,200.90
2009,05,19,15,17,200.00
2009,05,19,15,18,199.40
2009,05,19,15,19,196.20
2009,05,19,15,20,191.00
2009,05,19,15,21,185.80
2009,05,19,15,22,181.40
2009,05,19,15,23,176.00
2009,05,19,15,24,170.20
2009,05,19,15,25,162.20
2009,05,19,15,26,157.20
2009,05,19,15,27,153.20
2009,05,19,15,28,148.60
2009,05,19,15,29,148.40
2009,05,19,15,30,151.80
2009,05,19,15,31,162.00
2009,05,19,15,32,178.40
2009,05,19,15,33,201.50
2009,05,19,15,34,230.20
2009,05,19,15,35,259.90
2009,05,19,15,36,319.70
2009,05,19,15,37,312.90
2009,05,19,15,38,323.00
2009,05,19,15,39,335.30
2009,05,19,15,40,350.00
2009,05,19,15,41,373.00
2009,05,19,15,42,415.00
2009,05,19,15,43,503.90
2009,05,19,15,44,463.40
2009,05,19,15,45,447.70
2009,05,19,15,46,510.50
2009,05,19,15,47,545.80
2009,05,19,15,48,536.20
2009,05,19,15,49,535.90
2009,05,19,15,50,538.00
2009,05,19,15,51,422.30
2009,05,19,15,52,399.40
2009,05,19,15,53,383.00
2009,05,19,15,54,375.30
2009,05,19,15,55,372.00
2009,05,19,15,56,389.40
2009,05,19,15,57,389.20
2009,05,19,15,58,381.50
2009,05,19,15,59,417.60
2009,05,19,16,00,439.50
2009,05,19,16,01,398.30
2009,05,19,16,02,377.60
2009,05,19,16,03,365.80
2009,05,19,16,04,347.00
2009,05,19,16,05,333.80
2009,05,19,16,06,359.20
2009,05,19,16,07,431.50
2009,05,19,16,08,439.00
2009,05,19,16,09,315.00
2009,05,19,16,10,304.60
2009,05,19,16,11,295.20
2009,05,19,16,12,286.20
2009,05,19,16,13,281.70
2009,05,19,16,14,285.00
2009,05,19,16,15,294.30
2009,05,19,16,16,325.20
2009,05,19,16,17,400.00
2009,05,19,16,18,405.40
2009,05,19,16,19,417.20
2009,05,19,16,20,416.60
2009,05,19,16,21,404.50
2009,05,19,16,22,420.10
2009,05,19,16,23,353.00
2009,05,19,16,24,319.90
2009,05,19,16,25,286.00
2009,05,19,16,26,256.50
2009,05,19,16,27,229.10
2009,05,19,16,28,206.70
2009,05,19,16,29,188.20
2009,05,19,16,30,177.50
2009,05,19,16,31,172.90
2009,05,19,16,32,171.40
2009,05,19,16,33,171.00
2009,05,19,16,34,173.10
2009,05,19,16,35,174.00
2009,05,19,16,36,172.30
2009,05,19,16,37,171.10
2009,05,19,16,38,169.10
2009,05,19,16,39,169.20
2009,05,19,16,40,171.80
2009,05,19,16,41,177.40
2009,05,19,16,42,186.00
2009,05,19,16,43,196.30
2009,05,19,16,44,202.00
2009,05,19,16,45,200.60
2009,05,19,16,46,196.80
2009,05,19,16,47,193.30
2009,05,19,16,48,188.30
2009,05,19,16,49,182.30
2009,05,19,16,50,175.80
2009,05,19,16,51,172.30
2009,05,19,16,52,173.80
2009,05,19,16,53,181.60
2009,05,19,16,54,193.10
2009,05,19,16,55,203.60
2009,05,19,16,56,212.50
2009,05,19,16,57,208.10
2009,05,19,16,58,194.80
2009,05,19,16,59,177.80
2009,05,19,17,00,161.00
2009,05,19,17,01,149.20
2009,05,19,17,02,138.60
2009,05,19,17,03,130.60
2009,05,19,17,04,124.40
2009,05,19,17,05,120.60
2009,05,19,17,06,116.60
2009,05,19,17,07,114.20
2009,05,19,17,08,109.20